Tampa, FL

3:56 AM EST on December 04, 2016 (GMT -0500)
MacDill Air Force Base

Weather History for KMCF - July, 2013

Change the Weather History Date:

Wednesday, July 10, 2013

  Actual Average Record
Temperature  
Mean Temperature 81 °F -  
Max Temperature 91 °F 88 °F 96 °F (2004)
Min Temperature 72 °F 72 °F 72 °F (2013)
Cooling Degree Days 16    
Growing Degree Days 31 (Base 50)    
Moisture  
Dew Point 75 °F    
Average Humidity 85    
Maximum Humidity 100    
Minimum Humidity 57    
Precipitation  
Precipitation 0.85 in - - ()
Sea Level Pressure  
Sea Level Pressure 30.04 in    
Wind  
Wind Speed 7 mph (ENE)    
Max Wind Speed 17 mph    
Max Gust Speed 24 mph    
Visibility 8 miles    
Events Fog , Rain , Thunderstorm    
Averages and records for this station are not official NWS values.
T = Trace of Precipitation, MM = Missing Value Source: NWS Daily Summary

Daily Weather History Graph

Daily Weather History Graph

Search for Another Location

Airport or City:

Trip Planner

Search our weather history database for the weather conditions in past years. The results will help you decide how hot, cold, wet, or windy it might be!

Date:

Astronomy

Jul. 10, 2013 Rise Set
Actual Time 6:41 AM EDT 8:29 PM EDT
Civil Twilight 6:15 AM EDT 8:55 PM EDT
Nautical Twilight 5:43 AM EDT 9:27 PM EDT
Astronomical Twilight 5:10 AM EDT 10:00 PM EDT
Moon 8:46 AM EDT (7/10) 9:56 PM EDT (7/10)
Length of Visible Light 14h 40m
Length of Day
13h 47m
Waxing Crescent, 5% of the Moon is Illuminated
Jul 10
Waxing Crescent
Jul 15
First Quarter
Jul 22
Full
Jul 29
Last Quarter
Aug 6
New

Hourly Weather History & Observations

Time (EDT) Temp. Heat Index Dew Point Humidity Pressure Visibility Wind Dir Wind Speed Gust Speed Precip Events Conditions
12:58 AM 78.8 °F - 75.0 °F 88% 30.11 in 10.0 mi ESE 8.1 mph - N/A   Clear
1:58 AM 77.7 °F - 74.7 °F 90% 30.10 in 10.0 mi ESE 8.1 mph - N/A   Clear
2:58 AM 76.6 °F - 74.3 °F 92% 30.09 in 10.0 mi ESE 5.8 mph - N/A   Clear
3:58 AM 76.5 °F - 74.7 °F 94% 30.08 in 10.0 mi ESE 8.1 mph - N/A   Partly Cloudy
4:58 AM 75.9 °F - 74.5 °F 95% 30.09 in 10.0 mi ESE 5.8 mph - N/A   Partly Cloudy
5:58 AM 74.7 °F - 74.1 °F 98% 30.09 in 10.0 mi ESE 6.9 mph - N/A   Partly Cloudy
6:58 AM 74.3 °F - 74.3 °F 100% 30.09 in 10.0 mi ESE 4.6 mph - N/A   Clear
7:58 AM 78.1 °F - 75.6 °F 92% 30.09 in 10.0 mi ESE 5.8 mph - N/A   Clear
8:58 AM 82.4 °F 89.8 °F 75.6 °F 80% 30.11 in 10.0 mi Variable 1.2 mph - N/A   Scattered Clouds
9:03 AM 82.4 °F 89.5 °F 75.2 °F 79% 30.10 in 10.0 mi ENE 2.3 mph - N/A   Mostly Cloudy
9:08 AM 82.4 °F 89.5 °F 75.2 °F 79% 30.10 in 10.0 mi East 3.5 mph - N/A   Scattered Clouds
9:13 AM 82.4 °F 90.9 °F 77.0 °F 84% 30.10 in 10.0 mi Variable 2.3 mph - N/A   Partly Cloudy
9:58 AM 84.2 °F 94.1 °F 77.0 °F 79% 30.11 in 10.0 mi South 4.6 mph - N/A   Mostly Cloudy
10:03 AM 84.2 °F 94.1 °F 77.0 °F 79% 30.10 in 10.0 mi South 3.5 mph - N/A   Scattered Clouds
10:33 AM 86.0 °F 96.9 °F 77.0 °F 74% 30.09 in 10.0 mi South 5.8 mph - N/A   Mostly Cloudy
10:58 AM 85.1 °F 95.4 °F 76.6 °F 76% 30.10 in 10.0 mi SSW 4.6 mph - N/A   Mostly Cloudy
11:08 AM 84.2 °F 94.1 °F 77.0 °F 79% 30.10 in 10.0 mi South 5.8 mph - N/A   Scattered Clouds
11:58 AM 88.2 °F 94.6 °F 71.8 °F 58% 30.10 in 10.0 mi SSE 3.5 mph - N/A   Clear
12:58 PM 88.7 °F 98.2 °F 74.7 °F 63% 30.09 in 10.0 mi WNW 4.6 mph - N/A   Partly Cloudy
1:58 PM 89.4 °F 98.3 °F 74.1 °F 60% 30.07 in 10.0 mi West 5.8 mph - N/A   Mostly Cloudy
2:58 PM 90.7 °F 99.6 °F 73.8 °F 57% 30.04 in 10.0 mi Variable 5.8 mph - N/A   Clear
3:58 PM 90.9 °F 100.6 °F 74.5 °F 58% 30.02 in 10.0 mi West 8.1 mph - N/A   Clear
4:58 PM 90.3 °F 99.9 °F 74.1 °F 59% 29.99 in 10.0 mi NW 6.9 mph - N/A   Scattered Clouds
5:58 PM 89.4 °F 101.1 °F 76.3 °F 65% 29.99 in 10.0 mi Variable 5.8 mph - N/A   Clear
6:58 PM 88.0 °F 98.0 °F 75.6 °F 66% 29.98 in 10.0 mi WNW 11.5 mph - N/A Thunderstorm Clear
6:59 PM 87.8 °F 97.6 °F 75.2 °F 66% 29.97 in 10.0 mi WNW 10.4 mph - N/A Thunderstorm Thunderstorm
7:16 PM 87.8 °F 99.7 °F 77.0 °F 70% 29.99 in 10.0 mi South 17.3 mph 24.2 mph N/A Thunderstorm Thunderstorm
7:21 PM 86.0 °F 95.1 °F 75.2 °F 70% 29.99 in 10.0 mi SSE 12.7 mph 24.2 mph N/A Rain , Thunderstorm Light Thunderstorms and Rain
7:31 PM 80.6 °F 86.2 °F 75.2 °F 84% 29.99 in 10.0 mi South 10.4 mph 20.7 mph N/A Thunderstorm Thunderstorm
7:35 PM 80.6 °F 86.2 °F 75.2 °F 84% 29.99 in 9.0 mi SE 12.7 mph 20.7 mph N/A Rain , Thunderstorm Light Thunderstorms and Rain
7:40 PM 78.8 °F - 73.4 °F 83% 30.00 in 2.5 mi East 12.7 mph 23.0 mph N/A Rain , Thunderstorm Light Thunderstorms and Rain
7:45 PM 77.0 °F - 75.2 °F 94% 30.00 in 1.0 mi ENE 13.8 mph 23.0 mph N/A Rain , Thunderstorm Heavy Thunderstorms and Rain
7:50 PM 77.0 °F - 73.4 °F 89% 30.00 in 0.2 mi ENE 13.8 mph 23.0 mph N/A Fog , Rain , Thunderstorm Heavy Thunderstorms and Rain
7:55 PM 75.2 °F - 73.4 °F 94% 30.00 in 0.2 mi NE 11.5 mph - N/A Fog , Rain , Thunderstorm Heavy Thunderstorms and Rain
7:58 PM 75.7 °F - 73.2 °F 92% 30.01 in 0.2 mi NNE 10.4 mph - 0.30 in Fog , Rain , Thunderstorm Heavy Thunderstorms and Rain
8:03 PM 75.2 °F - 73.4 °F 94% 30.00 in 0.8 mi NNE 12.7 mph - N/A Rain , Thunderstorm Heavy Thunderstorms and Rain
8:08 PM 73.4 °F - 71.6 °F 94% 30.01 in 1.0 mi NNW 8.1 mph - N/A Rain , Thunderstorm Heavy Thunderstorms and Rain
8:13 PM 73.4 °F - 73.4 °F 100% 30.01 in 1.5 mi WNW 9.2 mph - N/A Rain , Thunderstorm Heavy Thunderstorms and Rain
8:18 PM 73.4 °F - 73.4 °F 100% 30.00 in 1.2 mi WNW 12.7 mph - N/A Rain , Thunderstorm Heavy Thunderstorms and Rain
8:23 PM 73.4 °F - 71.6 °F 94% 29.99 in 0.8 mi NW 10.4 mph - N/A Rain , Thunderstorm Heavy Thunderstorms and Rain
8:28 PM 73.4 °F - 71.6 °F 94% 30.00 in 1.2 mi WNW 8.1 mph - N/A Rain , Thunderstorm Heavy Thunderstorms and Rain
8:33 PM 73.4 °F - 71.6 °F 94% 30.00 in 4.0 mi WNW 6.9 mph - N/A Rain , Thunderstorm Heavy Thunderstorms and Rain
8:58 PM 72.7 °F - 72.7 °F 100% 30.01 in 10.0 mi WNW 5.8 mph - 0.55 in Rain , Thunderstorm Light Thunderstorms and Rain
9:05 PM 73.4 °F - 73.4 °F 100% 29.99 in 10.0 mi WNW 4.6 mph - N/A   Light Drizzle
9:19 PM 73.4 °F - 73.4 °F 100% 30.00 in 10.0 mi North 5.8 mph - N/A   Partly Cloudy
9:48 PM 75.2 °F - 75.2 °F 100% 30.02 in 10.0 mi NNE 5.8 mph - N/A   Light Drizzle
9:58 PM 74.7 °F - 74.7 °F 100% 30.04 in 10.0 mi NE 5.8 mph - 0.00 in   Light Drizzle
10:07 PM 75.2 °F - 75.2 °F 100% 30.03 in 10.0 mi East 3.5 mph - N/A   Scattered Clouds
10:58 PM 74.7 °F - 74.7 °F 100% 30.04 in 10.0 mi North 3.5 mph - 0.00 in   Scattered Clouds
11:58 PM 74.5 °F - 74.5 °F 100% 30.06 in 10.0 mi NE 3.5 mph - N/A   Mostly Cloudy